www.pogodaiklimat.ru

Погода и климат >> Архив погоды >> Россия >> Краснодарский край >> Крымск


ПОГОДА в Крымске

  • Прогноз погоды в Крымске
  • Монитор погоды в Крымске

АРХИВ ПОГОДЫ в Крымске

Время (UTC), дата Ветер
(напр.,м/с)
 
Видим.   Явления Облачность Т
(С)
Тd
(С)
f
(%)
Тe
(С)
Тes
(С)
Комфортность P
(гПа)
Po
(гПа)
Тmin
(С)
Tmax
(С)
R
(мм)
R24
(мм)
S
(см)
06 17.03 ЮВ 2 10 км в посл. час ливневой дождь 10/8 600 м
[Cb cap Ac und]
+5.6 +3.0 83 +3 +3 1007.5 1003.4
09 17.03 ЮВ 1 10 км {ливн. осадки} 10/6 600 м
[Cb cap Ac und]
+8.4 +3.6 72 +8 +9 1008.8 1004.6
12 17.03 З 4
{10}
10 км ливневой дождь 10/10 600 м
[Cb cap]
+5.8 +3.2 83 +2 +2 1011.8 1007.6
15 17.03 З 4
{10}
10 км {ливн. осадки} 8/8 600 м
[Cb cap]
+7.4 +2.7 72 +4 +4 1014.5 1010.4 +8.4 3
18 17.03 ЮЗ 1 10 км {ливн. осадки} 8/6 600 м
[Cb cap Ac trans]
+6.1 +2.7 79 +5 +5 1017.3 1013.1
21 17.03 ЮЗ 1 10 км 9/8 600 м
[Cb cap Ac trans]
+5.3 +3.0 85 +4 +4 1018.2 1014.0
00 18.03 ЮЗ 1 10 км 8/4 600 м
[Sc diur, vesp Ac trans]
+4.7 +2.8 87 +3 +3 1019.1 1014.9
03 18.03 З 1 10 км 3/3 600 м
[Sc diur, vesp]
+1.7 +0.8 94 -0 -0 1020.4 1016.1 +1.7
06 18.03 Ю 1 10 км 6/0
[Ac trans]
+8.2 +4.0 75 +8 +11 1022.4 1018.2 +1.2
09 18.03 С 2 20 км в посл. час ливневой дождь 9/6 600 м
[Cb cap Ac trans]
+9.3 +2.0 60 +8 +10 1023.0 1018.8
12 18.03 СЗ 1 20 км {ливн. осадки} 8/8 600 м
[Cb cap]
+11.1 +0.7 49 +11 +13 1023.1 1018.9
15 18.03 З 1 20 км 6/3 600 м
[Cb cap Ac trans]
+10.6 +3.2 60 +11 +11 1023.5 1019.3 +12.9 0.3
18 18.03 ЮЗ 2 10 км 1/0
[Ac trans]
+5.0 +2.6 84 +2 +2 1024.5 1020.2
21 18.03 ЮЗ 2 10 км ясно +2.0 +1.0 93 -1 -1 1024.5 1020.2
00 19.03 З 1 10 км ясно +0.3 -0.5 94 -2 -2 1024.6 1020.3
03 19.03 З 1 10 км ясно -0.6 -1.3 95 -3 -3 1024.6 1020.3 -0.6
06 19.03 штиль 0 200 м туман ?/? +3.3 +2.6 95 +2 +2 1025.0 1020.7 -0.7
09 19.03 В 1 10 км {туман} 3/0
[Ci fib]
+9.8 +4.6 70 +10 +22 опасность
простуды
1024.3 1020.1
12 19.03 СВ 4 20 км {туман} 4/0
[Ac trans Ci fib]
+14.7 +2.3 43 +14 +18 1022.8 1018.7
15 19.03 СВ 3 20 км {туман} ясно +13.7 +3.5 50 +13 +13 1022.1 1018.0 +15.1
18 19.03 СВ 2 10 км ясно +8.7 +5.3 79 +7 +7 1023.4 1019.2
21 19.03 В 1 10 км 10/10 600 м
[Sc]
+5.5 +3.5 87 +4 +4 1023.7 1019.5
00 20.03 СВ 2 10 км 10/10 600 м
[Sc]
+4.2 +2.6 89 +1 +1 1023.0 1018.7
03 20.03 В 1 10 км 10/8 600 м
[Sc Ac trans]
+3.4 +2.1 91 +2 +2 1022.6 1018.3 +3.4
06 20.03 В 2 10 км 10/10 600 м
[Sc]
+4.1 +2.1 87 +1 +1 1022.7 1018.5 +3.4
09 20.03 В 2 10 км 10/8 600 м
[Sc Ac trans]
+6.6 +2.9 77 +4 +5 1022.5 1018.3
12 20.03 В 2 10 км 6/0
[Ci fib]
+12.3 +4.9 61 +12 +18 1021.2 1017.1
15 20.03 В 1 20 км ясно +13.7 +5.3 57 +14 +14 1020.8 1016.7 +14.2
18 20.03 ЮЗ 1 10 км ясно +7.5 +4.4 81 +7 +7 1022.1 1017.9
21 20.03 З 2 10 км ясно +4.1 +2.4 89 +1 +1 1022.8 1018.5
00 21.03 З 1 10 км ясно +2.0 +0.9 92 0 0 1023.0 1018.7
03 21.03 З 1 10 км ясно +0.7 -0.2 94 -1 -1 1023.8 1019.5 +0.7
06 21.03 ЮЗ 2 10 км 1/0
[Ci fib]
+9.0 +5.0 76 +7 +12 1024.7 1020.5
09 21.03 З 2 10 км 3/3 600 м
[Cu med, cong]
+14.1 +0.5 39 +14 +22 1024.6 1020.5
12 21.03 ЮЗ 4 20 км 10/10 600 м
[Cb cap]
+10.0 +4.3 68 +8 +8 1025.0 1020.8
15 21.03 ЮЗ 3 10 км 10/8 600 м
[Cb cap Ac und]
+9.1 +4.2 71 +7 +7 1025.2 1021.0 +15.0
18 21.03 ЮЗ 1 10 км 8/5 600 м
[Sc Ac trans]
+7.9 +4.6 80 +7 +7 1026.5 1022.3
21 21.03 ЮЗ 2 10 км 3/0
[Ac trans]
+5.5 +2.5 81 +3 +3 1026.1 1021.9
00 22.03 ЮЗ 2 10 км 10/8 600 м
[Sc Ac und]
+5.8 +0.1 67 +4 +4 1025.4 1021.1
03 22.03 З 2 10 км 10/4 600 м
[Sc Ac trans Ci fib]
+6.4 +0.7 67 +4 +4 1024.6 1020.4 +4.5
06 22.03 СЗ 2 10 км 8/0
[Ac trans]
+8.8 +1.0 58 +7 +10 1025.6 1021.4
09 22.03 СЗ 4 10 км 6/4 600 м
[Sc Ci fib]
+11.1 +1.0 50 +9 +14 1024.7 1020.5
12 22.03 СЗ 2
{10}
20 км 10/3 600 м
[Cb cap Ci fib]
+10.6 -1.9 42 +10 +14 1023.4 1019.3
15 22.03 ЮЗ 4 10 км 10/0
[Ac und]
+9.4 -0.6 50 +7 +7 1022.0 1017.8 +11.7
18 22.03 ЮЗ 3 10 км 10/0
[Ac und]
+8.0 +2.1 66 +6 +6 1020.5 1016.3
21 22.03 ЮЗ 5-10
{11}
10 км 10/10 600 м
[Cb cap]
+8.9 +3.8 70 +6 +6 1018.2 1014.0
00 23.03 З 3
{11}
10 км слаб. ливневой дождь 10/10 300 м
[Cb cap]
+4.5 +2.5 87 +1 +1 1018.2 1014.0
03 23.03 З 2 10 км {ливн. осадки} 9/8 600 м
[Cb cap Ac trans]
+4.6 +1.7 81 +2 +2 1016.8 1012.6 +4.4 3
06 23.03 СЗ 4 10 км {ливн. осадки} 6/4 600 м
[Cb cap Ac trans]
+6.3 +1.4 71 +3 +4 1016.2 1012.0 +4.0
09 23.03 СЗ 3 20 км {ливн. осадки} 8/6 600 м
[Sc diur, vesp Ac trans]
+9.1 -7.6 30 +7 +10 1014.8 1010.6
12 23.03 ЮЗ 2
{15}
20 км {ливн. осадки} 9/8 600 м
[Cb cap Ac trans]
+5.2 -0.5 67 +3 +4 1015.3 1011.1
15 23.03 СЗ 3 10 км {ливн. осадки} 8/5 600 м
[Cb cap Ac trans]
+5.3 -1.7 61 +2 +2 1016.0 1011.7 +9.8 1
18 23.03 ЮЗ 2 10 км ясно +1.4 -2.0 78 -2 -2 1017.3 1013.0
21 23.03 ЮЗ 2 10 км 8/3 600 м
[Sc Ac trans]
+0.6 -2.1 82 -3 -3 1017.6 1013.3
00 24.03 ЮЗ 2 10 км 10/3 600 м
[Sc Ac trans]
+2.0 +0.1 87 -1 -1 1017.5 1013.2

 

Местоположение метеостанции Крымск (Краснодарский край, Россия): широта 44.92 долгота 38.00 высота над уровнем моря 35 м.

В архиве по умолчанию представлена погода в Крымске за последнюю неделю. Архивные данные за месяц целиком и за предыдущие месяцы, начиная с января 2011 года, Вы можете получить, выбрав интересующий диапазон дат из раскрывающегося списка и нажав кнопку "Ввод!".


*Определитесь, кто Вы:
робот инопланетянин человек

Внимание! Время в таблицах - всемирное. Для получения местного времени необходимо прибавить поправку, которая равна 3 ч.

Смотрите также архив погоды в соседних городах и на ближайших метеорологических станциях:

Погода в Новороссийске (Краснодарский край, Россия) (25 км)
Погода в Геленджике (Краснодарский край, Россия) (39 км)
Погода в Славянске-на-Кубани (Краснодарский край, Россия) (41 км)
Погода в Анапе (Краснодарский край, Россия) (57 км)
Погода в Темрюке (Краснодарский край, Россия) (66 км)
Погода в Краснодаре (Краснодарский край, Россия) (82 км)
Погода в Джубге (Краснодарский край, Россия) (87 км)
Погода в Горячем Ключе (Краснодарский край, Россия) (93 км)
Погода в Тамани (Краснодарский край, Россия) (106 км)
Погода в Тимашевске (Краснодарский край, Россия) (107 км)

Пояснения к столбцам:

Ветер - указаны скорость ветра в м/с - средняя за 10 мин, порывы в срок и между сроками (в фигурных скобках) и направление, откуда дует ветер: С - северный, СВ - северо-восточный, В - восточный, ЮВ - юго-восточный, Ю - южный, ЮЗ - юго-западный, З - западный, СЗ - северо-западный.
Видимость - горизонтальная дальность видимости в метрах или километрах. При видимости от 1 до 10 км при отсутствии осадков обычно наблюдается дымка, при ухудшении видимости до 1 км и менее - туман. В сухую погоду видимость может ухудшаться дымом, пылью или мглою.
Явления - указаны атмосферные явления, наблюдавшиеся в срок или в последний час перед сроком; фигурными скобками обозначены явления, наблюдавшиеся между сроками (за 1-3 часа до срока); квадратными скобками обозначены град или гололедные отложения с указанием их диаметра в мм.
Облачность - указаны через наклонную черту общая и нижняя облачность в баллах и высота нижней границы облаков в метрах; квадратными скобками обозначены формы облаков: Ci - перистые, Cs - перисто-слоистые, Cc - перисто-кучевые, Ac - высококучевые, As - высокослоистые, Sc - слоисто-кучевые, Ns - слоисто-дождевые, Cu - кучевые, Cb - кучево-дождевые. Подробнее классификацию облаков см. в Атласе облаков (PDF).
T - Температура воздуха - температура, измеренная на высоте 2 м над землей.
Td - Температура точки росы - температура, при понижении до которой содержащийся в воздухе водяной пар достигнет насыщения.
f - Относительная влажность воздуха - влажноcть воздуха, измеренная на высоте 2 м над землей.
Te - Эффективная температура - температура, которую ощущает одетый по сезону человек в тени. Характеристика душности погоды. При расчете учитывается влияние влажности воздуха и скорости ветра на теплоощущения человека.
Tes - Эффективная температура на солнце - температура, которую ощущает человек, с поправкой на солнечный нагрев. Характеристика знойности погоды. Зависит от высоты солнца над горизонтом, облачности и скорости ветра. Ночью, в пасмурную погоду, а также при ветре 12 м/с и более поправка равна нулю.
P - Атмосферное давление - приведенное к уровню моря атмосферное давление.
Po - Атмосферное давление - измеренное на уровне метеостанции атмосферное давление.
Tmin - Минимальная температура - минимум температуры воздуха на высоте 2 м над землей.
Tmax - Максимальная температура - максимум температуры воздуха на высоте 2 м над землей.
R - Количество осадков - Количество выпавших осадков за период времени, мм. При наведении курсора мыши на число - период времени, за который выпало указанное количество осадков.
R24 - Количество осадков - Количество выпавших осадков за 24 часа, мм.
S - Снежный покров - Высота снежного покрова, см. При наведении курсора мыши на число - состояние снежного покрова и степень покрытия местности в баллах.